User: anonymous   Login
Location: Nitra
(0.0000°N, 18.0833°E)
Time: 17:31:53
(UTC+02:00)
Language:

Lacrosse 5 rocket - Orbit

View from above orbital plane
View from above orbital plane
View from above satellite
View from above satellite

Ground track
Ground track

The orbit data is extracted from the following two-line orbital elements,

1 28647U 05016B   21105.34834127  .00000594  00000-0  52180-4 0  9998
2 28647  56.9966  92.4673 0121625 330.3514  29.0665 15.06336611105441
Epoch (UTC): 15 April 2021 08:21:36
Eccentricity: 0.0121625
inclination: 56.9966°
perigee height: 463 km
apogee height: 631 km
right ascension of ascending node: 92.4673°
argument of perigee: 330.3514°
revolutions per day: 15.06336611
mean anomaly at epoch: 29.0665°
orbit number at epoch: 10544

The dashed part of the orbit path shows where the satellite is in the earth's shadow,  

DLR